Location: Chimay
(50.0486°N, 4.3171°E)
Time: 05:37:56
(UTC+00:00)

Cosmos 1933 Rocket - Pass Details

Date: 08 August 2020
Orbit: 606 x 630 km, 82.5° (Epoch: 19 September)

Event Time Altitude Azimuth Distance (km) Brightness Sun altitude
Exits shadow 22:01:24 22° 218° (SW) 1,372 5.1 -20.1°
Maximum altitude 22:04:00 49° 284° (WNW) 807 4.3 -20.3°
Drops below altitude 10° 22:08:21 10° 1° (N) 2,012 7.1 -20.6°
Sets 22:10:40 0° 7° (N) 2,927 8.0 -20.7°
